FW2728 Weather Reports


Display with metric or nautical units.
time (UTC)temp
F
wind
direction
speed
MPH
gust
MPH
rain 1hr
in
rain 24hr
in
rain mn
in
humidity
%
barometer
mb
20260901042016 86 159 0.0 1.0 0.00 0.00 0.00 45 1014.7
20260901041016 87 119 0.0 1.0 0.00 0.00 0.00 44 1014.7
20260901040037 87 126 0.0 1.0 0.00 0.00 0.00 43 1014.7
20260901035017 87 118 0.0 2.0 0.00 0.00 0.00 42 1014.7
20260901034017 87 91 0.0 1.0 0.00 0.00 0.00 42 1014.7
20260901033017 88 81 0.0 0.0 0.00 0.00 0.00 41 1014.7
20260901032017 88 86 0.0 1.0 0.00 0.00 0.00 40 1014.6
20260901031038 89 125 0.0 1.0 0.00 0.00 0.00 40 1014.6
20260901030015 89 113 0.0 1.0 0.00 0.00 0.00 39 1014.5
20260901025018 89 103 0.0 1.0 0.00 0.00 0.00 38 1014.4
20260901024018 90 109 0.0 1.0 0.00 0.00 0.00 38 1014.3
20260901023016 90 230 0.0 1.0 0.00 0.00 0.00 39 1014.2
20260901022015 91 90 0.0 1.0 0.00 0.00 0.00 38 1014.1
20260901021036 91 147 0.0 1.0 0.00 0.00 0.00 37 1014.0
20260901020016 92 109 0.0 2.0 0.00 0.00 0.00 37 1013.8
20260901015017 93 113 0.0 2.0 0.00 0.00 0.00 37 1013.7
20260901014016 93 108 0.0 2.0 0.00 0.00 0.00 36 1013.6
20260901013016 94 109 1.0 3.0 0.00 0.00 0.00 35 1013.6
20260901012016 94 108 1.0 2.0 0.00 0.00 0.00 35 1013.6
20260901011017 95 104 2.0 5.0 0.00 0.00 0.00 34 1013.5
20260901010037 95 108 1.0 4.0 0.00 0.00 0.00 35 1013.4
20260901005017 96 109 1.0 3.0 0.00 0.00 0.00 35 1013.4
20260901004018 96 121 1.0 4.0 0.00 0.00 0.00 34 1013.4
20260901003017 97 156 1.0 4.0 0.00 0.00 0.00 34 1013.4
20260901002018 98 166 2.0 6.0 0.00 0.00 0.00 33 1013.4
20260901001018 98 124 1.0 4.0 0.00 0.00 0.00 33 1013.4
20260901000035 99 225 2.0 7.0 0.00 0.00 0.00 32 1013.4
20260831235018 98 130 1.0 3.0 0.00 0.00 0.00 32 1013.4
20260831234019 99 188 1.0 5.0 0.00 0.00 0.00 32 1013.5
20260831233016 99 107 2.0 8.0 0.00 0.00 0.00 31 1013.4
20260831232036 100 92 3.0 7.0 0.00 0.00 0.00 31 1013.4
20260831231016 100 138 2.0 6.0 0.00 0.00 0.00 31 1013.4
20260831230016 101 192 2.0 5.0 0.00 0.00 0.00 31 1013.4
20260831225017 101 203 2.0 5.0 0.00 0.00 0.00 31 1013.4
20260831224016 101 204 2.0 6.0 0.00 0.00 0.00 31 1013.4
20260831223016 101 134 3.0 6.0 0.00 0.00 0.00 30 1013.5
20260831222017 101 222 4.0 9.0 0.00 0.00 0.00 30 1013.5
20260831221017 101 219 2.0 6.0 0.00 0.00 0.00 30 1013.6
20260831220017 100 223 1.0 6.0 0.00 0.00 0.00 30 1013.6
20260831215017 100 193 2.0 5.0 0.00 0.00 0.00 32 1013.9
20260831214017 100 205 3.0 8.0 0.00 0.00 0.00 31 1014.0
20260831213018 100 111 3.0 7.0 0.00 0.00 0.00 31 1014.0
20260831212058 100 101 3.0 9.0 0.00 0.00 0.00 32 1014.1
20260831211018 101 94 4.0 9.0 0.00 0.00 0.00 31 1014.2
20260831210018 101 184 2.0 5.0 0.00 0.00 0.00 30 1014.3
20260831205015 100 215 2.0 6.0 0.00 0.00 0.00 30 1014.4
20260831204015 99 128 2.0 5.0 0.00 0.00 0.00 32 1014.7
20260831203016 100 160 3.0 6.0 0.00 0.00 0.00 31 1014.8
20260831202015 98 131 3.0 7.0 0.00 0.00 0.00 33 1014.9
20260831201016 98 160 2.0 5.0 0.00 0.00 0.00 35 1015.1
20260831200036 98 116 2.0 7.0 0.00 0.00 0.00 34 1015.2
20260831195016 99 108 4.0 9.0 0.00 0.00 0.00 33 1015.2
20260831194016 99 153 3.0 8.0 0.00 0.00 0.00 33 1015.3
20260831193036 99 123 4.0 9.0 0.00 0.00 0.00 34 1015.4
20260831192017 99 156 2.0 6.0 0.00 0.00 0.00 35 1015.6
20260831191017 100 154 3.0 7.0 0.00 0.00 0.00 32 1015.6
20260831190017 99 147 3.0 8.0 0.00 0.00 0.00 34 1015.6
20260831185017 99 184 3.0 7.0 0.00 0.00 0.00 35 1015.9
20260831184017 98 171 3.0 10.0 0.00 0.00 0.00 37 1015.9
20260831183037 98 198 4.0 9.0 0.00 0.00 0.00 36 1016.0
20260831182017 98 218 4.0 8.0 0.00 0.00 0.00 36 1016.2
20260831181018 98 178 2.0 7.0 0.00 0.00 0.00 36 1016.4
20260831180038 98 193 3.0 6.0 0.00 0.00 0.00 36 1016.6
20260831175015 98 167 3.0 7.0 0.00 0.00 0.00 37 1016.8
20260831174016 98 180 3.0 6.0 0.00 0.00 0.00 37 1016.9
20260831173036 97 105 3.0 10.0 0.00 0.00 0.00 38 1017.0
20260831172015 96 129 2.0 4.0 0.00 0.00 0.00 38 1017.1
20260831171016 95 186 3.0 7.0 0.00 0.00 0.00 40 1017.2
20260831170016 96 193 3.0 6.0 0.00 0.00 0.00 39 1017.3
20260831165016 96 182 2.0 6.0 0.00 0.00 0.00 39 1017.3
20260831164016 94 201 2.0 4.0 0.00 0.00 0.00 40 1017.3
20260831163017 94 174 2.0 6.0 0.00 0.00 0.00 42 1017.3
20260831162016 93 243 3.0 7.0 0.00 0.00 0.00 43 1017.4
20260831161017 93 205 2.0 6.0 0.00 0.00 0.00 43 1017.3
20260831160018 92 236 2.0 6.0 0.00 0.00 0.00 43 1017.4
20260831155017 92 226 2.0 4.0 0.00 0.00 0.00 44 1017.4
20260831154039 91 209 3.0 5.0 0.00 0.00 0.00 46 1017.4
20260831153021 90 277 2.0 5.0 0.00 0.00 0.00 49 1017.3
20260831152042 90 231 3.0 8.0 0.00 0.00 0.00 50 1017.3
20260831151038 89 208 2.0 5.0 0.00 0.00 0.00 52 1017.2
20260831150020 88 260 3.0 6.0 0.00 0.00 0.00 54 1017.2
20260831145015 87 237 3.0 8.0 0.00 0.00 0.00 55 1017.2
20260831144035 86 236 2.0 6.0 0.00 0.00 0.00 58 1017.1
20260831143015 85 219 3.0 6.0 0.00 0.00 0.00 60 1017.0
20260831142017 85 236 3.0 7.0 0.00 0.00 0.00 62 1017.1
20260831141016 84 220 3.0 6.0 0.00 0.00 0.00 65 1017.1
20260831140016 83 232 3.0 6.0 0.00 0.00 0.00 67 1017.1
20260831135036 82 224 2.0 6.0 0.00 0.00 0.00 69 1017.1
20260831134017 81 202 3.0 7.0 0.00 0.00 0.00 70 1017.0
20260831133016 81 203 2.0 5.0 0.00 0.00 0.00 71 1016.8
20260831132016 80 205 2.0 5.0 0.00 0.00 0.00 72 1016.7
20260831131017 80 211 3.0 5.0 0.00 0.00 0.00 73 1016.5
20260831130057 79 216 2.0 5.0 0.00 0.00 0.00 73 1016.3
20260831125017 79 209 2.0 5.0 0.00 0.00 0.00 74 1016.3
20260831124021 79 210 2.0 5.0 0.00 0.00 0.00 74 1016.2
20260831123018 78 212 2.0 5.0 0.00 0.00 0.00 74 1016.1
20260831122018 78 199 1.0 3.0 0.00 0.00 0.00 73 1016.0
20260831121018 79 207 1.0 4.0 0.00 0.00 0.00 73 1015.9
20260831120018 79 224 2.0 6.0 0.00 0.00 0.00 72 1015.8
20260831115015 79 210 1.0 4.0 0.00 0.00 0.00 72 1015.7
20260831114018 79 205 1.0 4.0 0.00 0.00 0.00 71 1015.5
20260831113016 80 213 2.0 4.0 0.00 0.00 0.00 70 1015.4
20260831112036 80 203 1.0 3.0 0.00 0.00 0.00 70 1015.3
20260831111016 80 206 2.0 4.0 0.00 0.00 0.00 69 1015.2
20260831110016 80 211 1.0 4.0 0.00 0.00 0.00 69 1015.2
20260831105016 80 201 1.0 3.0 0.00 0.00 0.00 68 1015.2
20260831104017 80 202 2.0 5.0 0.00 0.00 0.00 68 1015.2
20260831103016 81 210 1.0 4.0 0.00 0.00 0.00 68 1015.2
20260831102017 81 206 1.0 5.0 0.00 0.00 0.00 67 1015.2
20260831101017 81 205 1.0 3.0 0.00 0.00 0.00 66 1015.1
20260831100017 81 213 1.0 4.0 0.00 0.00 0.00 66 1015.1
20260831095017 82 194 1.0 3.0 0.00 0.00 0.00 65 1015.1
20260831094017 82 217 1.0 5.0 0.00 0.00 0.00 64 1015.1
20260831093018 82 219 2.0 5.0 0.00 0.00 0.00 64 1015.1
20260831092018 82 210 1.0 3.0 0.00 0.00 0.00 63 1015.0
20260831091018 82 211 2.0 7.0 0.00 0.00 0.00 63 1014.9
20260831090015 83 201 1.0 4.0 0.00 0.00 0.00 62 1014.8
20260831085018 83 212 1.0 3.0 0.00 0.00 0.00 61 1014.8
20260831084019 83 215 1.0 6.0 0.00 0.00 0.00 61 1014.8
20260831083016 83 227 2.0 5.0 0.00 0.00 0.00 60 1014.7
20260831082015 83 218 1.0 3.0 0.00 0.00 0.00 59 1014.7
20260831081036 83 219 1.0 4.0 0.00 0.00 0.00 58 1014.8
20260831080016 83 224 2.0 5.0 0.00 0.00 0.00 57 1014.7
20260831075036 83 230 2.0 6.0 0.00 0.00 0.00 56 1014.7
20260831074016 83 215 2.0 4.0 0.00 0.00 0.00 55 1014.7
20260831073017 83 224 2.0 5.0 0.00 0.00 0.00 54 1014.7
20260831072017 84 232 2.0 5.0 0.00 0.00 0.00 53 1014.6
20260831071037 84 213 3.0 7.0 0.00 0.00 0.00 52 1014.6
20260831070017 84 214 2.0 6.0 0.00 0.00 0.00 51 1014.7
20260831065018 85 223 3.0 6.0 0.00 0.00 0.00 51 1014.7
20260831064018 85 226 3.0 6.0 0.00 0.00 0.00 49 1014.8
20260831063018 85 209 2.0 5.0 0.00 0.00 0.00 50 1014.7
20260831062018 84 210 2.0 4.0 0.00 0.00 0.00 51 1014.7
20260831061038 84 205 1.0 4.0 0.00 0.00 0.00 51 1014.7
20260831060036 85 177 0.0 1.0 0.00 0.00 0.00 51 1014.7
20260831055016 85 211 0.0 3.0 0.00 0.00 0.00 50 1014.8
20260831054016 85 201 1.0 2.0 0.00 0.00 0.00 49 1014.8
20260831053056 86 198 1.0 4.0 0.00 0.00 0.00 49 1014.7
20260831052016 86 196 1.0 3.0 0.00 0.00 0.00 49 1014.6
20260831051017 86 194 0.0 2.0 0.00 0.00 0.00 49 1014.5
20260831050057 86 222 0.0 2.0 0.00 0.00 0.00 49 1014.5
20260831045017 87 136 0.0 2.0 0.00 0.00 0.00 49 1014.4
20260831044017 87 231 0.0 1.0 0.00 0.00 0.00 48 1014.4
20260831043017 87 189 0.0 2.0 0.00 0.00 0.00 48 1014.4